Presure
254 270 235 236 214 195 194 180 205 176 190 113 184 124 183 99 122 175 140 129 142 143 121 119 129 114 122 116 103 129 119 104 122 130 122 124 110 119 126 124 132 125 118 101
251 255 264 238 234 198 190 192 179 202 184 180 144 169 127 129 126 144 145 163 125 132 123 134 127 121 125 126 130 122 115 118 118 120 111 121 114 126 111 131 119 132 134 128
241 249 245 272 249 234 216 187 205 178 187 201 181 94 119 163 126 123 111 134 159 161 112 116 118 119 130 124 124 121 115 114 103 115 114 108 118 123 119 125 129 123 127 132
217 226 246 233 271 274 239 225 221 211 208 192 212 204 176 87 149 126 128 173 164 133 138 130 116 118 113 133 118 126 127 131 129 123 127 128 116 116 121 117 119 131 116 118
251 214 233 246 240 270 293 256 228 222 206 219 200 213 213 192 180 115 175 175 145 136 126 136 127 119 123 122 127 110 127 126 131 132 119 138 124 127 127 125 118 123 124 126
238 230 208 229 233 241 259 284 267 233 224 220 224 222 211 217 179 112 148 178 190 96 126 101 131 141 130 132 131 120 121 134 131 128 129 132 134 137 121 126 132 123 125 130
225 231 236 214 217 223 238 248 271 275 243 240 216 219 233 200 206 207 205 151 166 124 125 147 125 134 141 128 133 126 137 133 129 127 129 133 127 130 126 135 120 133 127 124
201 225 229 222 229 214 216 231 247 260 278 225 228 226 231 231 235 212 195 206 210 125 171 179 127 131 147 183 212 207 141 140 130 142 129 134 133 134 137 134 134 139 134 91
223 206 205 221 235 229 244 232 214 232 244 255 234 312 239 233 225 230 212 215 211 203 187 207 182 147 123 128 131 143 141 126 133 130 124 130 131 135 129 137 127 127 132 135
216 218 215 202 222 221 214 232 215 204 227 219 256 266 150 310 246 228 134 220 230 223 102 205 117 150 200 133 120 126 142 153 136 134 138 120 114 143 134 130 130 127 124 131
211 217 209 206 214 221 233 213 227 240 243 253 229 254 253 268 298 246 228 224 113 225 89 215 200 204 131 195 143 220 131 121 122 137 175 128 132 130 119 121 136 137 136 146
208 221 227 197 201 213 218 235 232 236 241 244 225 72 213 243 251 279 286 234 230 232 229 155 230 223 208 202 200 213 187 130 128 123 123 124 118 187 203 113 130 147 123 112
222 219 221 206 204 205 222 232 236 237 239 246 231 205 89 196 158 180 230 109 184 279 253 237 235 87 197 218 220 122 203 194 189 209 128 203 125 118 129 128 126 124 146 149
221 225 235 236 213 197 236 232 251 245 248 241 249 220 233 205 243 236 239 257 66 178 274 295 259 240 165 214 216 86 221 225 120 106 159 198 168 172 144 165 112 159 130 113
245 247 254 247 249 232 233 236 251 248 253 248 241 93 206 197 220 246 242 242 84 272 300 290 276 264 246 231 214 117 217 224 223 206 214 179 215 221 215 192 186 163 179 179
255 257 262 265 270 255 253 240 249 246 247 250 253 248 63 239 240 225 237 247 241 250 271 280 295 267 266 258 257 241 222 224 216 96 210 215 205 206 220 213 105 103 155 205
250 248 251 258 256 269 264 239 233 244 245 247 261 258 254 255 229 239 221 235 250 260 253 255 270 223 257 250 239 236 204 234 239 180 208 170 111 207 209 214 140 165 166 180
286 286 277 271 258 267 256 247 230 234 242 254 264 270 267 258 240 226 234 232 239 254 254 102 254 265 282 242 247 220 223 246 260 236 223 214 211 214 209 207 202 201 200 203
296 299 306 309 304 298 277 266 246 150 244 244 254 267 264 260 70 239 230 233 237 242 254 250 265 244 279 80 104 243 225 233 71 244 221 223 208 212 209 197 205 116 205 199
263 262 268 273 288 291 307 305 301 318 337 287 289 288 271 267 271 255 261 232 231 238 239 253 261 276 187 249 263 259 248 237 242 239 242 245 229 232 225 223 223 90 95 209
255 266 267 298 265 268 274 272 262 267 277 280 309 319 306 295 286 263 254 265 236 229 234 232 255 255 256 224 131 261 248 237 222 231 255 177 186 230 226 222 214 213 214 218
286 293 291 289 295 287 306 297 247 285 259 259 265 271 340 313 301 264 258 250 259 243 217 230 233 250 218 259 235 145 261 266 271 146 231 235 242 224 219 227 221 224 223 223
275 281 283 290 290 292 291 289 284 283 298 298 302 306 269 271 319 292 258 255 247 254 250 244 233 239 251 252 131 254 228 248 273 269 272 237 235 242 243 230 230 232 233 228
282 275 283 287 280 270 277 280 280 290 288 288 288 305 277 273 304 322 284 258 252 248 255 250 244 91 251 244 240 253 256 241 246 254 253 258 264 251 230 230 228 226 229 226
273 273 267 267 268 273 289 337 329 280 286 298 308 307 307 310 275 307 306 270 255 251 245 251 246 249 260 249 245 238 236 251 244 233 247 263 249 229 245 259 225 233 250 248
315 314 337 346 331 341 335 347 338 304 343 320 291 297 308 305 303 296 319 287 262 250 245 248 257 250 255 248 247 236 260 236 242 241 237 251 265 260 258 180 253 236 213 227
Wind_Speed
62 67 85 92 97 98 99 95 89 96 99 69 97 77 92 40 69 93 80 51 63 62 57 57 59 55 55 49 42 50 49 40 46 46 44 44 39 41 40 40 41 41 41 29
55 62 74 88 93 97 98 98 95 95 103 98 86 96 83 80 79 77 80 84 57 61 63 67 65 62 60 55 55 54 49 50 49 48 45 47 40 47 41 44 44 44 42 43
54 60 70 62 86 91 95 98 98 104 105 103 103 50 70 89 79 65 53 64 79 80 63 66 66 63 63 57 58 56 52 50 43 49 48 45 49 49 44 49 47 46 45 46
57 63 60 72 63 73 90 96 98 102 104 106 107 106 102 54 83 83 81 91 87 80 76 76 68 67 54 63 58 61 61 60 58 57 57 58 52 48 52 49 47 50 45 46
47 66 60 58 69 59 54 89 97 100 103 105 110 107 103 102 103 80 101 96 86 88 79 85 76 64 63 57 63 57 65 62 62 62 57 64 59 58 59 56 48 50 52 53
49 64 65 63 67 70 67 57 82 101 103 104 99 108 103 101 102 80 101 99 111 61 81 53 76 84 75 71 68 64 62 68 66 63 63 66 65 64 58 56 58 56 57 59
53 54 61 69 69 70 70 71 63 76 100 98 102 113 101 102 101 104 104 94 99 82 79 88 81 82 87 72 71 66 76 71 69 68 68 70 62 62 59 62 57 63 59 56
58 53 54 65 69 76 74 77 77 73 68 83 108 113 99 95 98 105 110 109 109 81 101 104 86 80 81 95 102 96 77 75 66 75 69 72 69 66 67 64 65 67 65 33
49 57 65 60 61 64 59 76 85 83 80 68 98 61 104 101 97 98 106 109 110 109 97 101 98 94 74 74 71 83 78 64 71 70 67 72 72 73 67 71 59 63 66 68
54 52 59 72 60 69 74 72 88 86 85 80 73 73 34 65 102 104 57 105 105 107 49 106 54 72 101 80 60 64 76 84 76 76 79 61 62 79 72 69 66 62 57 65
61 57 62 68 68 68 68 84 83 79 79 76 84 71 69 63 62 84 107 109 47 108 49 106 108 105 64 100 75 97 77 67 68 81 91 72 74 73 61 62 73 74 72 78
67 59 60 75 79 78 82 77 80 80 76 79 78 3 87 77 75 73 83 113 113 111 106 80 99 99 106 105 106 100 82 76 76 72 71 69 63 89 92 57 74 85 60 59
69 72 67 77 86 89 86 83 80 79 77 78 81 76 28 67 62 62 65 36 69 107 107 104 100 36 84 102 102 63 97 89 84 94 79 97 72 66 74 74 74 71 88 90
79 76 74 74 83 93 86 86 83 83 79 80 74 75 78 76 76 87 89 82 40 64 102 93 97 97 74 103 102 41 96 95 71 61 86 92 87 91 89 84 64 73 77 60
88 86 83 77 80 83 83 85 85 87 84 83 75 28 88 94 86 76 85 89 50 82 81 86 88 96 101 101 102 57 103 98 93 95 92 84 92 88 90 88 89 93 91 91
88 86 85 82 83 81 78 79 84 87 87 86 80 73 33 82 84 90 81 82 92 90 79 71 79 90 91 91 92 98 105 104 96 47 96 93 93 93 87 86 56 45 75 90
85 80 81 79 82 81 77 80 85 87 91 90 85 79 84 80 88 85 96 86 86 86 84 78 75 59 86 89 90 93 89 104 97 84 97 84 56 93 88 82 67 68 72 77
87 85 87 82 85 86 76 81 87 89 94 99 92 87 81 84 88 91 91 91 92 89 85 34 78 71 67 87 88 100 110 98 92 89 94 95 96 93 90 88 88 87 87 88
75 74 74 77 80 77 79 87 91 56 95 98 96 90 85 80 51 94 93 94 93 89 81 80 73 75 66 52 54 98 107 99 38 89 94 94 98 94 93 90 91 47 89 92
73 74 72 72 69 64 68 78 83 85 88 97 100 97 90 82 82 93 91 92 95 89 87 76 73 67 73 66 74 88 97 101 102 91 89 84 88 86 87 86 86 47 46 88
75 73 73 70 66 60 67 74 84 86 85 87 86 92 95 90 85 89 94 91 95 91 86 81 75 74 75 86 58 78 89 92 91 92 87 64 66 81 84 86 87 86 86 84
71 69 70 68 61 65 68 72 86 83 84 84 80 80 84 91 87 88 92 92 91 94 87 82 84 78 81 78 85 69 77 79 79 71 90 89 89 82 85 81 83 83 83 83
69 72 69 62 60 68 72 72 76 83 82 82 81 76 78 79 88 87 91 92 92 91 89 87 86 81 76 77 59 81 86 80 65 69 72 91 88 81 80 79 80 80 80 79
68 73 67 67 62 73 71 72 76 78 80 80 79 78 77 79 81 86 91 92 91 93 88 87 86 34 76 78 80 79 77 81 78 72 76 76 74 77 78 75 75 74 73 74
67 69 71 68 70 74 72 72 72 77 73 74 72 75 75 78 81 83 90 91 93 92 91 85 81 80 76 76 77 80 80 70 75 82 73 70 68 68 65 66 74 69 66 66
58 63 64 62 66 70 66 68 69 71 70 73 73 72 73 77 80 83 87 92 93 93 89 87 80 80 78 74 71 80 71 80 76 79 75 65 64 65 58 47 64 72 75 71
Wind_Direction
228 229 229 229 230 229 230 232 230 234 235 242 230 243 236 222 251 237 246 238 238 232 238 240 240 240 241 238 240 237 243 249 247 246 250 251 253 253 251 251 255 251 256 276
228 227 227 229 229 230 231 230 232 230 234 232 239 234 240 239 242 235 246 246 239 236 237 240 241 239 239 241 240 241 242 242 246 248 252 253 252 255 258 256 260 260 260 263
232 230 228 228 229 229 232 232 232 232 232 232 233 228 246 239 245 230 249 240 244 244 238 239 243 242 241 239 243 245 247 249 245 249 252 257 255 256 259 258 260 262 264 263
235 236 230 232 228 229 229 231 231 231 233 233 232 229 232 234 235 248 246 242 244 244 242 237 241 243 242 239 244 244 244 246 247 250 249 250 260 261 259 262 263 261 266 268
228 239 236 229 230 229 233 231 231 232 232 234 235 232 232 231 230 247 241 242 244 243 244 241 242 247 246 244 241 250 247 247 246 247 252 251 255 254 257 260 268 267 266 268
234 233 235 232 229 229 229 233 231 232 233 232 236 238 233 232 233 241 241 237 238 232 248 242 248 243 246 242 241 246 249 246 250 251 251 253 253 253 262 255 260 267 267 266
237 239 235 240 237 235 233 234 234 233 233 236 236 239 232 231 232 232 234 238 239 250 250 248 243 249 243 242 243 245 242 243 247 250 251 252 256 255 259 258 265 261 266 271
230 239 239 235 236 239 237 235 234 234 236 232 235 239 238 236 233 232 234 235 237 246 236 240 247 250 248 245 248 249 245 245 249 247 255 256 259 259 260 260 261 262 266 249
238 235 239 241 238 235 237 233 234 232 232 233 234 242 238 238 236 236 235 236 236 238 239 238 242 249 248 251 251 250 251 250 252 251 256 255 257 257 264 261 265 265 267 267
239 236 241 239 244 240 239 237 238 237 233 234 232 236 231 243 237 238 236 237 237 236 235 238 244 243 245 249 246 251 252 252 254 254 254 257 253 256 262 265 263 267 272 270
242 237 240 245 244 246 244 238 238 239 235 234 235 233 238 239 243 237 237 238 241 236 250 234 237 239 243 246 244 251 251 248 250 255 253 258 259 262 260 261 267 268 269 268
238 243 244 242 244 243 245 244 240 239 237 235 234 310 237 238 236 237 236 237 239 240 237 239 236 236 239 243 246 248 250 247 249 251 253 255 256 257 260 256 267 265 267 269
243 240 237 239 244 244 246 248 246 242 240 240 234 231 226 235 238 242 242 249 232 240 239 237 237 243 239 240 242 245 244 247 247 250 254 255 257 259 262 265 268 269 267 269
247 245 249 249 240 248 253 251 251 247 242 239 240 229 227 234 236 239 241 243 246 248 244 238 238 238 236 240 244 241 244 245 240 246 253 252 257 259 262 261 262 259 270 267
257 257 256 250 251 246 251 253 253 251 249 242 238 228 233 239 238 238 242 241 240 246 249 242 239 239 239 240 240 240 245 243 243 245 249 250 252 252 254 258 260 265 264 266
255 256 255 253 250 248 246 247 251 250 250 249 241 233 234 233 234 236 237 243 243 242 242 246 244 237 238 241 241 243 246 247 240 227 246 248 250 253 253 255 261 264 264 265
253 250 250 250 250 249 242 240 245 250 251 248 246 234 233 228 234 235 238 238 242 243 239 237 242 242 237 237 240 242 244 245 244 242 244 245 252 252 255 257 264 260 264 261
253 251 252 250 249 249 243 240 240 243 246 247 244 240 231 229 232 236 236 236 240 243 241 231 238 238 241 236 235 239 243 248 246 241 244 246 248 251 249 250 253 255 259 262
250 250 249 247 246 246 245 243 237 232 244 245 247 243 237 230 210 234 235 237 237 240 244 243 241 239 239 239 244 236 244 247 253 242 245 245 248 250 251 251 251 263 255 258
250 251 250 250 248 245 242 242 243 243 241 241 242 243 241 234 228 234 235 237 241 239 240 240 241 239 241 241 239 241 243 245 250 247 247 247 249 249 253 255 257 274 269 260
250 251 251 250 247 245 239 240 242 242 241 239 238 239 240 236 229 228 233 235 238 242 242 241 242 237 235 241 245 239 240 243 248 252 255 248 250 247 249 252 255 258 261 265
253 249 249 249 247 245 243 239 243 243 241 241 238 238 237 237 231 228 230 232 236 237 242 239 242 239 241 238 239 238 243 242 244 248 250 251 250 243 247 251 252 255 258 262
253 254 250 249 247 246 243 241 240 242 242 239 238 236 236 238 234 229 230 232 233 237 236 236 239 240 238 238 241 242 242 243 244 243 246 246 251 255 254 251 253 255 257 259
249 253 254 252 246 246 247 243 242 241 241 239 239 235 232 234 232 229 228 230 232 236 234 236 238 231 237 240 242 242 244 244 244 244 245 247 252 249 250 250 252 253 254 255
253 253 252 252 251 247 246 247 244 243 240 244 240 237 233 231 233 229 227 226 229 231 237 234 236 240 236 236 241 245 246 242 245 248 248 249 248 248 251 251 247 251 255 254
255 252 253 252 250 250 247 247 245 242 242 241 239 237 234 230 230 229 225 225 226 229 234 235 231 233 236 235 236 242 241 244 242 244 249 251 253 255 248 253 247 249 250 251